Weather History for Fairbanks, AK

Change the Weather History Date:

Wednesday, December 12, 2012

  Actual Average Record
Temperature  
Mean Temperature 17 °F -3 °F  
Max Temperature 22 °F 6 °F 40 °F (1944)
Min Temperature 11 °F -12 °F -57 °F (1935)
Degree Days  
Heating Degree Days 48 68  
Month to date heating degree days 964 813  
Since 1 July heating degree days 5453 4944  
Cooling Degree Days 0 0  
Month to date cooling degree days 0 0  
Year to date cooling degree days 34 61  
Moisture  
Dew Point 16 °F    
Average Humidity 90    
Maximum Humidity 93    
Minimum Humidity 77    
Precipitation  
Precipitation 0.72 in 0.02 in 0.72 in (2012)
Month to date precipitation 1.00 0.23  
Year to date precipitation 10.43 10.40  
Snow  
Snow 9.50 in 0.50 in 9.50 in (2012)
Month to date snowfall 15.6 4.6  
Since 1 July snowfall 26.9 30.4  
Snow Depth 19.00 in    
Sea Level Pressure  
Sea Level Pressure 29.15 in    
Wind  
Wind Speed 3 mph (North)    
Max Wind Speed 7 mph    
Max Gust Speed -    
Visibility 2 miles    
Events Fog , Snow    
T = Trace of Precipitation, MM = Missing Value Source: NWS Daily Summary

Daily Weather History Graph

Daily Weather History Graph

Search for Another Location

Airport:

Trip Planner

Search our weather history database for the weather conditions in past years. The results will help you decide how hot, cold, wet, or windy it might be!

Date:

Astronomy

Dec. 12, 2012 Rise Set
Actual Time 10:48 AM AKST 2:42 PM AKST
Civil Twilight 9:25 AM AKST 4:05 PM AKST
Nautical Twilight 8:14 AM AKST 5:16 PM AKST
Astronomical Twilight 7:12 AM AKST 6:18 PM AKST
Moon 9:49 AM AKST (12/12) 2:43 PM AKST (12/12)
Length of Visible Light 6h 40m
Length of Day
3h 54m
Waning Crescent, 0% of the Moon is Illuminated
Dec 12
Waning Crescent
Dec 12
New
Dec 19
First Quarter
Dec 28
Full
Jan 4
Last Quarter

Hourly Weather History & Observations

Time (AKST) Temp. Windchill Dew Point Humidity Pressure Visibility Wind Dir Wind Speed Gust Speed Precip Events Conditions
12:53 AM 12.0 °F 2.7 °F 7.0 °F 80% 29.52 in 10.0 mi North 5.8 mph - N/A   Overcast
1:53 AM 10.9 °F 0.2 °F 7.0 °F 84% 29.45 in 3.0 mi ENE 6.9 mph - N/A Snow Light Snow
2:12 AM 10.4 °F 4.0 °F 8.6 °F 92% 29.39 in 2.0 mi NNE 3.5 mph - N/A Snow Light Snow
2:53 AM 12.0 °F 1.5 °F 8.1 °F 84% 29.40 in 2.5 mi North 6.9 mph - N/A Snow Light Snow
3:53 AM 14.0 °F 6.5 °F 10.0 °F 84% 29.37 in 2.0 mi North 4.6 mph - N/A Snow Light Snow
4:53 AM 14.0 °F - 10.9 °F 88% 29.31 in 1.8 mi Calm Calm - N/A Snow Light Snow
5:53 AM 15.1 °F 7.7 °F 12.0 °F 88% 29.27 in 1.5 mi NNE 4.6 mph - N/A Snow Light Snow
6:53 AM 16.0 °F 8.8 °F 12.9 °F 88% 29.24 in 1.0 mi North 4.6 mph - N/A Snow Light Snow
7:51 AM 17.6 °F 9.3 °F 14.0 °F 86% 29.17 in 0.5 mi North 5.8 mph - N/A Snow Light Snow
7:53 AM 17.1 °F 10.0 °F 14.0 °F 88% 29.20 in 0.5 mi North 4.6 mph - N/A Snow Light Snow
8:02 AM 17.6 °F 10.7 °F 14.0 °F 86% 29.16 in 0.5 mi North 4.6 mph - N/A Snow Light Snow
8:04 AM 17.6 °F 10.7 °F 14.0 °F 86% 29.16 in 0.8 mi North 4.6 mph - N/A Snow Light Snow
8:53 AM 18.0 °F 11.1 °F 15.1 °F 88% 29.18 in 0.8 mi North 4.6 mph - N/A Snow Light Snow
9:16 AM 17.6 °F - 15.8 °F 93% 29.14 in 1.0 mi Calm Calm - N/A Snow Light Snow
9:41 AM 17.6 °F - 15.8 °F 93% 29.14 in 0.8 mi Calm Calm - N/A Snow Light Snow
9:53 AM 19.0 °F - 16.0 °F 88% 29.17 in 0.8 mi Calm Calm - N/A Snow Light Snow
10:02 AM 17.6 °F 12.3 °F 15.8 °F 93% 29.13 in 1.0 mi NNW 3.5 mph - N/A Snow Light Snow
10:09 AM 19.4 °F 12.8 °F 15.8 °F 86% 29.14 in 2.0 mi North 4.6 mph - N/A Snow Light Snow
10:21 AM 19.4 °F 14.3 °F 15.8 °F 86% 29.13 in 1.8 mi NNW 3.5 mph - N/A Snow Light Snow
10:53 AM 19.0 °F - 16.0 °F 88% 29.17 in 1.2 mi Calm Calm - N/A Snow Light Snow
11:53 AM 19.0 °F - 16.0 °F 88% 29.16 in 1.5 mi Calm Calm - N/A Snow Light Snow
12:32 PM 19.4 °F - 15.8 °F 86% 29.12 in 0.8 mi Calm Calm - N/A Snow Light Snow
12:53 PM 19.9 °F - 17.1 °F 89% 29.16 in 0.8 mi Calm Calm - N/A Snow Light Snow
1:03 PM 19.4 °F - 17.6 °F 93% 29.12 in 0.5 mi Calm Calm - N/A Fog , Snow Light Snow
1:53 PM 19.9 °F 13.4 °F 17.1 °F 89% 29.15 in 0.5 mi North 4.6 mph - N/A Fog , Snow Light Snow
2:51 PM 19.4 °F 14.3 °F 17.6 °F 93% 29.12 in 0.8 mi North 3.5 mph - N/A Snow Light Snow
2:53 PM 19.9 °F - 17.1 °F 89% 29.15 in 0.8 mi Calm Calm - N/A Snow Light Snow
3:05 PM 19.4 °F - 17.6 °F 93% 29.12 in 0.8 mi Calm Calm - N/A Snow Light Snow
3:12 PM 19.4 °F - 17.6 °F 93% 29.12 in 0.8 mi Calm Calm - N/A Snow Light Snow
3:20 PM 19.4 °F - 17.6 °F 93% 29.12 in 1.0 mi Calm Calm - N/A Snow Light Snow
3:27 PM 19.4 °F - 17.6 °F 93% 29.12 in 1.0 mi Calm Calm - N/A Snow Light Snow
3:34 PM 19.4 °F - 17.6 °F 93% 29.12 in 2.0 mi Calm Calm - N/A Snow Light Snow
3:48 PM 19.4 °F - 17.6 °F 93% 29.11 in 1.0 mi Calm Calm - N/A Snow Light Snow
3:53 PM 19.9 °F - 17.1 °F 89% 29.14 in 1.0 mi Calm Calm - N/A Snow Light Snow
4:04 PM 19.4 °F - 17.6 °F 93% 29.10 in 2.0 mi Calm Calm - N/A Snow Light Snow
4:19 PM 19.4 °F - 17.6 °F 93% 29.10 in 1.5 mi Calm Calm - N/A Snow Light Snow
4:24 PM 19.4 °F - 17.6 °F 93% 29.10 in 0.8 mi Calm Calm - N/A Snow Light Snow
4:33 PM 19.4 °F 14.3 °F 17.6 °F 93% 29.10 in 1.0 mi NE 3.5 mph - N/A Snow Light Snow
4:46 PM 19.4 °F - 17.6 °F 93% 29.10 in 2.0 mi Calm Calm - N/A Snow Light Snow
4:53 PM 19.9 °F - 17.1 °F 89% 29.13 in 3.0 mi Calm Calm - N/A Snow Light Snow
4:55 PM 19.4 °F 14.3 °F 17.6 °F 93% 29.10 in 3.0 mi NE 3.5 mph - N/A Snow Light Snow
5:53 PM 21.0 °F - 18.0 °F 88% 29.12 in 3.0 mi Calm Calm - N/A Snow Light Snow
5:57 PM 21.2 °F - 17.6 °F 86% 29.09 in 2.5 mi Calm Calm - N/A Snow Light Snow
6:37 PM 21.2 °F 16.4 °F 19.4 °F 93% 29.09 in 3.0 mi NNE 3.5 mph - N/A Snow Light Snow
6:53 PM 21.9 °F 17.2 °F 19.0 °F 89% 29.12 in 6.0 mi NE 3.5 mph - N/A Snow Light Snow
7:20 PM 21.2 °F - 19.4 °F 93% 29.08 in 2.0 mi Calm Calm - N/A Snow Light Snow
7:26 PM 21.2 °F 16.4 °F 19.4 °F 93% 29.08 in 1.2 mi NNE 3.5 mph - N/A Snow Light Snow
7:34 PM 21.2 °F 16.4 °F 19.4 °F 93% 29.08 in 0.8 mi NNE 3.5 mph - N/A Snow Light Snow
7:48 PM 21.2 °F - 19.4 °F 93% 29.07 in 0.8 mi Calm Calm - N/A Snow Light Snow
7:53 PM 21.0 °F - 19.0 °F 92% 29.11 in 0.8 mi Calm Calm - N/A Snow Light Snow
8:53 PM 21.9 °F 15.7 °F 19.0 °F 89% 29.09 in 0.8 mi North 4.6 mph - N/A Snow Light Snow
9:40 PM 21.2 °F - 19.4 °F 93% 29.05 in 1.0 mi Calm Calm - N/A Snow Light Snow
9:46 PM 21.2 °F - 19.4 °F 93% 29.05 in 0.8 mi Calm Calm - N/A Snow Light Snow
9:53 PM 21.9 °F - 19.9 °F 92% 29.08 in 0.8 mi Calm Calm - N/A Snow Light Snow
10:01 PM 21.2 °F 16.4 °F 19.4 °F 93% 29.05 in 1.0 mi North 3.5 mph - N/A Snow Light Snow
10:19 PM 21.2 °F 16.4 °F 19.4 °F 93% 29.05 in 0.8 mi North 3.5 mph - N/A Snow Light Snow
10:47 PM 21.2 °F - 19.4 °F 93% 29.05 in 1.2 mi Calm Calm - N/A Snow Light Snow
10:53 PM 21.9 °F - 19.9 °F 92% 29.08 in 1.2 mi Calm Calm - N/A Snow Light Snow
11:53 PM 21.9 °F - 19.9 °F 92% 29.08 in 1.0 mi Calm Calm - N/A Snow Light Snow